GW4911 Weather Reports


Display with metric or nautical units.
time (UTC)temp
F
wind
direction
speed
MPH
gust
MPH
rain 1hr
in
rain 24hr
in
rain mn
in
humidity
%
barometer
mb
20260906154221 75 105 7.0 9.0 0.00 0.00 0.00 80 1019.2
20260906153719 73 116 6.0 9.0 0.00 0.00 0.00 85 1019.5
20260906153213 73 201 1.0 9.0 0.00 0.00 0.00 86 1019.5
20260906152703 73 143 2.0 6.0 0.00 0.00 0.00 85 1019.5
20260906152202 73 123 4.0 8.0 0.00 0.00 0.00 85 1019.5
20260906151657 75 143 4.0 7.0 0.00 0.00 0.00 81 1019.3
20260906151153 74 98 2.0 7.0 0.00 0.00 0.00 83 1019.2
20260906150648 73 177 7.0 9.0 0.00 0.00 0.00 85 1019.1
20260906150143 71 153 3.0 9.0 0.00 0.00 0.00 89 1019.2
20260906145642 71 94 4.0 8.0 0.00 0.00 0.00 90 1019.4
20260906145137 70 109 3.0 4.0 0.00 0.00 0.00 91 1019.4
20260906144631 69 146 3.0 6.0 0.00 0.00 0.00 93 1019.4
20260906144126 69 156 3.0 7.0 0.00 0.00 0.00 94 1019.4
20260906143626 68 132 4.0 8.0 0.00 0.00 0.00 94 1019.4
20260906143123 68 120 4.0 7.0 0.00 0.00 0.00 95 1019.5
20260906142622 67 122 5.0 9.0 0.00 0.00 0.00 96 1019.4
20260906142117 67 154 3.0 8.0 0.00 0.00 0.00 96 1019.5
20260906141616 68 113 6.0 10.0 0.00 0.00 0.00 95 1019.4
20260906141112 68 98 3.0 6.0 0.00 0.00 0.00 96 1019.4
20260906140611 68 125 4.0 7.0 0.00 0.00 0.00 95 1019.2
20260906140106 68 90 6.0 7.0 0.00 0.00 0.00 96 1019.4
20260906135603 68 121 4.0 6.0 0.00 0.00 0.00 96 1019.3
20260906135059 68 94 5.0 7.0 0.00 0.00 0.00 96 1019.2
20260906134554 68 95 7.0 10.0 0.00 0.00 0.00 96 1018.9
20260906134049 68 169 4.0 8.0 0.00 0.00 0.00 96 1019.1
20260906133550 68 199 6.0 8.0 0.00 0.00 0.00 95 1018.8
20260906133045 68 129 4.0 7.0 0.00 0.00 0.00 95 1019.2
20260906132540 69 85 4.0 7.0 0.00 0.00 0.00 95 1018.9
20260906132036 69 111 4.0 7.0 0.00 0.00 0.00 95 1019.0
20260906131531 68 110 4.0 6.0 0.00 0.00 0.00 95 1018.8
20260906131026 68 109 1.0 6.0 0.00 0.00 0.00 95 1018.8
20260906130525 68 115 3.0 7.0 0.00 0.00 0.00 95 1019.0
20260906130022 68 110 4.0 6.0 0.00 0.00 0.00 96 1018.9
20260906125519 68 109 4.0 4.0 0.00 0.00 0.00 96 1018.9
20260906125019 67 122 3.0 6.0 0.00 0.00 0.00 96 1018.9
20260906124515 68 87 4.0 4.0 0.00 0.00 0.00 96 1019.1
20260906124015 67 83 2.0 3.0 0.00 0.00 0.00 96 1019.2
20260906123513 67 122 3.0 3.0 0.00 0.00 0.00 97 1018.9
20260906123009 67 114 0.0 3.0 0.00 0.00 0.00 97 1019.1
20260906122503 67 94 3.0 3.0 0.00 0.00 0.00 98 1018.8
20260906121959 67 106 2.0 6.0 0.00 0.00 0.00 98 1018.8
20260906121455 66 96 1.0 3.0 0.00 0.00 0.00 99 1018.9
20260906120951 66 101 1.0 3.0 0.00 0.00 0.00 99 1018.7
20260906120447 66 102 1.0 3.0 0.00 0.00 0.00 99 1018.8
20260906115943 66 111 0.0 4.0 0.00 0.00 0.00 99 1018.6
20260906115438 66 133 3.0 3.0 0.00 0.00 0.00 99 1018.6
20260906114932 66 95 2.0 3.0 0.00 0.00 0.00 99 1018.4
20260906114432 66 112 2.0 3.0 0.00 0.00 0.00 99 1018.6
20260906113928 66 114 0.0 2.0 0.00 0.00 0.00 99 1018.5
20260906113426 66 110 3.0 6.0 0.00 0.00 0.00 99 1018.2
20260906112923 66 134 2.0 3.0 0.00 0.00 0.00 99 1018.3
20260906112418 66 102 2.0 4.0 0.00 0.00 0.00 99 1018.3
20260906111914 66 114 2.0 3.0 0.00 0.00 0.00 99 1018.2
20260906111413 66 99 0.0 0.0 0.00 0.00 0.00 99 1018.2
20260906110908 66 99 1.0 2.0 0.00 0.00 0.00 99 1018.3
20260906110403 66 99 0.0 1.0 0.00 0.00 0.00 99 1018.2
20260906105903 66 99 0.0 0.0 0.00 0.00 0.00 99 1018.2
20260906105358 66 99 1.0 2.0 0.00 0.00 0.00 99 1018.0
20260906104854 67 99 0.0 0.0 0.00 0.00 0.00 98 1018.0
20260906104352 67 99 0.0 1.0 0.00 0.00 0.00 98 1018.0
20260906103851 67 99 0.0 0.0 0.00 0.00 0.00 98 1018.0
20260906103349 67 99 1.0 2.0 0.00 0.00 0.00 98 1018.1
20260906102846 67 99 0.0 1.0 0.00 0.00 0.00 98 1018.1
20260906102344 67 99 0.0 1.0 0.00 0.00 0.00 97 1018.1
20260906101840 68 113 2.0 3.0 0.00 0.00 0.00 97 1017.8
20260906101335 68 145 1.0 3.0 0.00 0.00 0.00 97 1017.9
20260906100831 68 111 4.0 4.0 0.00 0.00 0.00 97 1017.8
20260906100329 68 105 3.0 3.0 0.00 0.00 0.00 97 1017.8
20260906095825 68 113 1.0 2.0 0.00 0.00 0.00 96 1017.8
20260906095320 68 100 0.0 1.0 0.00 0.00 0.00 96 1017.7
20260906094819 68 109 1.0 2.0 0.00 0.00 0.00 96 1017.3
20260906094315 69 108 2.0 3.0 0.00 0.00 0.00 96 1017.3
20260906093811 69 115 2.0 3.0 0.00 0.00 0.00 96 1017.5
20260906093307 69 95 2.0 3.0 0.00 0.00 0.00 96 1017.3
20260906092802 69 99 2.0 3.0 0.00 0.00 0.00 96 1017.3
20260906092305 69 91 2.0 3.0 0.00 0.00 0.00 95 1017.2
20260906091757 69 108 1.0 2.0 0.00 0.00 0.00 95 1017.2
20260906091253 69 98 2.0 3.0 0.00 0.00 0.00 95 1017.5
20260906090750 69 102 3.0 3.0 0.00 0.00 0.00 96 1017.5
20260906090248 69 102 2.0 3.0 0.00 0.00 0.00 96 1017.2
20260906085748 69 113 1.0 3.0 0.00 0.00 0.00 96 1017.5
20260906085247 69 116 2.0 4.0 0.00 0.00 0.00 95 1017.3
20260906084742 69 113 2.0 3.0 0.00 0.00 0.00 96 1017.0
20260906084236 69 105 1.0 2.0 0.00 0.00 0.00 96 1017.1
20260906083732 68 96 1.0 3.0 0.00 0.00 0.00 97 1017.0
20260906083227 68 89 1.0 2.0 0.00 0.00 0.00 98 1017.1
20260906082722 68 89 2.0 2.0 0.00 0.00 0.00 98 1017.0
20260906082217 68 89 0.0 1.0 0.00 0.00 0.00 98 1017.3
20260906081713 68 204 1.0 1.0 0.00 0.00 0.00 98 1017.2
20260906081208 67 115 2.0 2.0 0.00 0.00 0.00 98 1017.1
20260906080704 67 98 2.0 3.0 0.00 0.00 0.00 98 1017.2
20260906080200 67 110 3.0 3.0 0.00 0.00 0.00 98 1017.2
20260906075659 67 107 2.0 2.0 0.00 0.00 0.00 98 1017.3
20260906075154 68 107 0.0 0.0 0.00 0.00 0.00 97 1017.3
20260906074649 68 107 0.0 0.0 0.00 0.00 0.00 97 1017.1
20260906074149 68 107 1.0 2.0 0.00 0.00 0.00 97 1017.2
20260906073643 68 107 1.0 2.0 0.00 0.00 0.00 97 1017.3
20260906073139 68 116 1.0 2.0 0.00 0.00 0.00 97 1017.2
20260906072634 68 96 3.0 3.0 0.00 0.00 0.00 97 1017.3
20260906072130 68 111 1.0 3.0 0.00 0.00 0.00 97 1017.2
20260906071626 68 109 3.0 4.0 0.00 0.00 0.00 97 1017.5
20260906071126 68 106 2.0 3.0 0.00 0.00 0.00 96 1017.7
20260906070623 68 106 0.0 2.0 0.00 0.00 0.00 96 1017.7
20260906070119 68 105 0.0 0.0 0.00 0.00 0.00 96 1017.6
20260906065618 68 105 0.0 2.0 0.00 0.00 0.00 95 1017.6
20260906065113 68 115 1.0 2.0 0.00 0.00 0.00 95 1017.7
20260906064609 69 98 2.0 3.0 0.00 0.00 0.00 95 1017.7
20260906064104 68 111 2.0 3.0 0.00 0.00 0.00 95 1017.8
20260906063559 69 102 2.0 4.0 0.00 0.00 0.00 95 1017.9
20260906063055 69 113 3.0 4.0 0.00 0.00 0.00 95 1017.6
20260906062550 69 102 2.0 3.0 0.00 0.00 0.00 95 1017.8
20260906062044 68 98 3.0 3.0 0.00 0.00 0.00 96 1017.9
20260906061541 68 98 2.0 2.0 0.00 0.00 0.00 97 1017.9
20260906061040 68 94 0.0 1.0 0.00 0.00 0.00 97 1017.7
20260906060537 67 94 0.0 0.0 0.00 0.00 0.00 98 1017.8
20260906060034 68 94 0.0 0.0 0.00 0.00 0.00 97 1017.5
20260906055529 68 94 0.0 0.0 0.00 0.00 0.00 97 1017.7
20260906055025 68 94 0.0 0.0 0.00 0.00 0.00 97 1017.7
20260906054524 68 94 0.0 0.0 0.00 0.00 0.00 97 1017.6
20260906054020 68 94 0.0 0.0 0.00 0.00 0.00 97 1017.8
20260906053516 68 94 0.0 0.0 0.00 0.00 0.00 96 1017.7
20260906053011 68 94 0.0 0.0 0.00 0.00 0.00 96 1017.7
20260906052507 68 94 0.0 0.0 0.00 0.00 0.00 96 1017.6
20260906052004 69 94 0.0 0.0 0.00 0.00 0.00 95 1017.8
20260906051459 69 94 1.0 1.0 0.00 0.00 0.00 96 1017.9
20260906050954 69 94 0.0 0.0 0.00 0.00 0.00 95 1017.7
20260906050453 69 94 0.0 0.0 0.00 0.00 0.00 95 1017.7
20260906045948 69 94 0.0 1.0 0.00 0.00 0.00 95 1017.8
20260906045447 69 94 0.0 0.0 0.00 0.00 0.00 95 1017.8
20260906044943 69 94 0.0 0.0 0.00 0.00 0.00 95 1017.7
20260906044438 69 94 0.0 0.0 0.00 0.00 0.00 95 1017.8
20260906043933 69 94 0.0 0.0 0.00 0.00 0.00 94 1017.9
20260906043429 69 94 0.0 0.0 0.00 0.00 0.00 94 1017.8
20260906042925 69 94 0.0 0.0 0.00 0.00 0.00 93 1017.7
20260906042424 69 94 0.0 0.0 0.00 0.00 0.00 93 1017.7
20260906041918 69 94 0.0 0.0 0.00 0.00 0.00 93 1017.7
20260906041415 69 94 0.0 0.0 0.00 0.00 0.00 94 1017.7
20260906040914 69 94 0.0 0.0 0.00 0.00 0.00 94 1017.6
20260906040409 69 94 0.0 0.0 0.00 0.00 0.00 94 1017.8
20260906035905 69 94 0.0 0.0 0.00 0.00 0.00 93 1017.8
20260906035400 69 94 0.0 0.0 0.00 0.00 0.00 93 1017.6
20260906034855 69 94 0.0 0.0 0.00 0.00 0.00 93 1017.3
20260906034350 69 94 0.0 1.0 0.00 0.00 0.00 93 1017.8
20260906033846 69 94 0.0 0.0 0.00 0.00 0.00 94 1017.6
20260906033345 69 94 0.0 0.0 0.00 0.00 0.00 94 1017.8
20260906032842 69 94 0.0 0.0 0.00 0.00 0.00 93 1017.9
20260906032337 69 94 0.0 0.0 0.00 0.00 0.00 93 1017.9
20260906031833 69 94 0.0 0.0 0.00 0.00 0.00 93 1017.9
20260906031328 69 94 0.0 0.0 0.00 0.00 0.00 93 1017.9
20260906030827 69 94 0.0 0.0 0.00 0.00 0.00 92 1017.9
20260906030322 69 94 0.0 0.0 0.00 0.00 0.00 92 1017.8
20260906025817 69 94 0.0 0.0 0.00 0.00 0.00 93 1018.1
20260906025311 69 94 0.0 0.0 0.00 0.00 0.00 93 1018.1
20260906024810 69 94 0.0 0.0 0.00 0.00 0.00 93 1018.1
20260906024309 69 94 0.0 0.0 0.00 0.00 0.00 93 1018.1
20260906023805 70 94 0.0 0.0 0.00 0.00 0.00 93 1018.0
20260906023301 70 94 0.0 0.0 0.00 0.00 0.00 92 1017.9
20260906022756 70 94 0.0 0.0 0.00 0.00 0.00 92 1017.9
20260906022251 70 94 0.0 0.0 0.00 0.00 0.00 92 1017.8
20260906021747 70 94 0.0 0.0 0.00 0.00 0.00 91 1017.7
20260906021245 71 94 0.0 0.0 0.00 0.00 0.00 91 1017.2
20260906020741 71 94 0.0 0.0 0.00 0.00 0.00 90 1017.2
20260906020235 71 94 0.0 0.0 0.00 0.00 0.00 88 1017.1
20260906015730 72 94 0.0 0.0 0.00 0.00 0.00 88 1017.0
20260906015228 72 94 0.0 0.0 0.00 0.00 0.00 87 1016.8
20260906014723 72 94 0.0 0.0 0.00 0.00 0.00 86 1016.6
20260906014218 73 94 0.0 0.0 0.00 0.00 0.00 85 1016.6
20260906013709 73 94 1.0 2.0 0.00 0.00 0.00 83 1016.3
20260906013209 74 254 0.0 0.0 0.00 0.00 0.00 82 1016.4
20260906012704 74 254 0.0 0.0 0.00 0.00 0.00 81 1016.1
20260906012203 75 254 0.0 1.0 0.00 0.00 0.00 80 1016.2
20260906011659 75 249 1.0 2.0 0.00 0.00 0.00 79 1015.9
20260906011153 75 94 1.0 4.0 0.00 0.00 0.00 79 1015.6
20260906010649 76 110 1.0 3.0 0.00 0.00 0.00 79 1015.1
20260906010145 76 195 2.0 3.0 0.00 0.00 0.00 78 1015.1
20260906005644 76 129 2.0 4.0 0.00 0.00 0.00 78 1014.9
20260906005144 76 118 2.0 6.0 0.00 0.00 0.00 77 1015.2
20260906004643 76 111 4.0 6.0 0.00 0.00 0.00 76 1015.1
20260906004138 77 109 4.0 4.0 0.00 0.00 0.00 76 1015.2
20260906003633 77 113 4.0 7.0 0.00 0.00 0.00 75 1015.1
20260906003129 78 112 5.0 6.0 0.00 0.00 0.00 75 1015.2
20260906002624 78 136 4.0 6.0 0.00 0.00 0.00 74 1015.3
20260906002119 78 97 0.0 1.0 0.00 0.00 0.00 73 1015.3
20260906001615 78 122 2.0 4.0 0.00 0.00 0.00 73 1015.3
20260906001114 79 100 1.0 4.0 0.00 0.00 0.00 73 1015.0
20260906000611 79 119 3.0 4.0 0.00 0.00 0.00 72 1015.1
20260906000106 79 89 6.0 8.0 0.00 0.00 0.00 72 1015.0
20260905235604 80 143 4.0 7.0 0.00 0.00 0.00 72 1014.9
20260905235100 80 116 4.0 7.0 0.00 0.00 0.00 71 1015.1
20260905234555 80 75 5.0 9.0 0.00 0.00 0.00 71 1015.0
20260905234050 80 77 5.0 10.0 0.00 0.00 0.00 70 1014.8
20260905233545 81 66 6.0 8.0 0.00 0.00 0.00 70 1014.8
20260905233045 81 100 4.0 6.0 0.00 0.00 0.00 70 1015.0
20260905232540 81 48 6.0 7.0 0.00 0.00 0.00 69 1014.9
20260905232036 81 116 8.0 9.0 0.00 0.00 0.00 69 1014.9
20260905231531 81 55 6.0 13.0 0.00 0.00 0.00 68 1014.6
20260905231027 82 119 7.0 9.0 0.00 0.00 0.00 68 1014.7
20260905230526 82 74 8.0 11.0 0.00 0.00 0.00 67 1015.0
20260905230024 82 78 5.0 15.0 0.00 0.00 0.00 67 1014.9
20260905225520 82 88 4.0 9.0 0.00 0.00 0.00 67 1014.9
20260905225015 82 59 4.0 9.0 0.00 0.00 0.00 67 1015.1
20260905224515 82 104 10.0 11.0 0.00 0.00 0.00 67 1015.2
20260905224014 82 91 5.0 8.0 0.00 0.00 0.00 67 1015.2
20260905223512 82 81 4.0 8.0 0.00 0.00 0.00 66 1015.2
20260905223008 82 8 4.0 7.0 0.00 0.00 0.00 65 1015.3
20260905222507 83 107 5.0 8.0 0.00 0.00 0.00 65 1015.4
20260905222002 82 32 6.0 7.0 0.00 0.00 0.00 66 1015.4
20260905221454 82 104 7.0 9.0 0.00 0.00 0.00 65 1015.3
20260905220950 82 42 4.0 9.0 0.00 0.00 0.00 67 1015.2
20260905220446 82 51 6.0 9.0 0.00 0.00 0.00 67 1015.1
20260905215944 82 83 3.0 10.0 0.00 0.00 0.00 66 1015.2
20260905215440 82 45 2.0 11.0 0.00 0.00 0.00 66 1015.1
20260905214937 83 48 6.0 9.0 0.00 0.00 0.00 67 1014.9
20260905214432 82 59 6.0 9.0 0.00 0.00 0.00 67 1015.2
20260905213931 82 1 3.0 8.0 0.00 0.00 0.00 69 1015.4
20260905213428 82 78 2.0 6.0 0.00 0.00 0.00 68 1015.5
20260905212923 82 68 4.0 6.0 0.00 0.00 0.00 69 1015.5
20260905212418 82 67 5.0 8.0 0.00 0.00 0.00 69 1015.5
20260905211917 82 48 3.0 6.0 0.00 0.00 0.00 70 1015.8
20260905211413 82 52 4.0 8.0 0.00 0.00 0.00 69 1015.6
20260905210909 82 20 1.0 8.0 0.00 0.00 0.00 70 1015.8
20260905210408 82 87 6.0 9.0 0.00 0.00 0.00 68 1016.2
20260905205908 82 52 2.0 3.0 0.00 0.00 0.00 70 1016.0
20260905205403 82 70 4.0 7.0 0.00 0.00 0.00 70 1016.1
20260905204901 82 68 2.0 4.0 0.00 0.00 0.00 70 1016.4
20260905204358 81 43 3.0 6.0 0.00 0.00 0.00 72 1016.4
20260905203856 82 61 2.0 6.0 0.00 0.00 0.00 71 1016.4
20260905203352 82 105 2.0 3.0 0.00 0.00 0.00 68 1016.5
20260905202842 82 91 3.0 3.0 0.00 0.00 0.00 69 1016.5
20260905202337 82 102 3.0 4.0 0.00 0.00 0.00 71 1016.7
20260905201833 81 94 1.0 2.0 0.00 0.00 0.00 70 1016.7
20260905201328 81 125 3.0 4.0 0.00 0.00 0.00 71 1016.8
20260905200828 81 90 4.0 6.0 0.00 0.00 0.00 71 1016.8
20260905200325 81 47 1.0 6.0 0.00 0.00 0.00 72 1017.1
20260905195821 81 316 3.0 3.0 0.00 0.00 0.00 70 1017.0
20260905195317 80 72 2.0 4.0 0.00 0.00 0.00 73 1017.0
20260905194813 81 89 0.0 4.0 0.00 0.00 0.00 74 1017.1
20260905194307 82 96 3.0 3.0 0.00 0.00 0.00 72 1017.0
20260905193806 82 195 0.0 3.0 0.00 0.00 0.00 71 1017.1
20260905193302 80 115 4.0 6.0 0.00 0.00 0.00 71 1017.2
20260905192756 80 68 0.0 4.0 0.00 0.00 0.00 72 1017.0
20260905192253 80 82 1.0 3.0 0.00 0.00 0.00 74 1017.3
20260905191752 80 74 2.0 6.0 0.00 0.00 0.00 75 1016.9
20260905191250 80 139 3.0 7.0 0.00 0.00 0.00 74 1017.0
20260905190749 80 134 2.0 8.0 0.00 0.00 0.00 77 1017.1
20260905190248 78 135 1.0 3.0 0.00 0.00 0.00 75 1017.1
20260905185747 80 120 4.0 6.0 0.00 0.00 0.00 75 1017.0
20260905185243 79 111 2.0 3.0 0.00 0.00 0.00 76 1017.1
20260905184742 79 299 2.0 2.0 0.00 0.00 0.00 75 1017.1
20260905184242 79 73 1.0 2.0 0.00 0.00 0.00 76 1017.0
20260905183740 78 74 0.0 1.0 0.00 0.00 0.00 76 1017.1
20260905183236 78 85 1.0 3.0 0.00 0.00 0.00 77 1017.2
20260905182731 78 69 2.0 3.0 0.00 0.00 0.00 78 1017.3
20260905182230 77 60 1.0 1.0 0.00 0.00 0.00 79 1017.3
20260905181726 77 95 2.0 3.0 0.00 0.00 0.00 80 1017.2
20260905181224 77 88 1.0 3.0 0.00 0.00 0.00 79 1017.2
20260905180720 77 81 4.0 4.0 0.00 0.00 0.00 79 1017.1
20260905180215 77 103 6.0 7.0 0.00 0.00 0.00 78 1017.2
20260905175714 77 94 5.0 7.0 0.00 0.00 0.00 79 1017.5
20260905175209 77 133 5.0 8.0 0.00 0.00 0.00 78 1017.3
20260905174704 77 96 3.0 8.0 0.00 0.00 0.00 79 1017.3
20260905174200 78 108 3.0 6.0 0.00 0.00 0.00 77 1017.6
20260905173656 76 167 0.0 3.0 0.00 0.00 0.00 80 1017.5
20260905173151 76 69 3.0 6.0 0.00 0.00 0.00 83 1017.8
20260905172651 76 3 0.0 1.0 0.00 0.00 0.00 81 1017.7
20260905172151 76 71 1.0 1.0 0.00 0.00 0.00 81 1017.7
20260905171647 75 71 3.0 3.0 0.00 0.00 0.00 83 1017.7
20260905171143 77 111 2.0 3.0 0.00 0.00 0.00 81 1017.9
20260905170640 76 18 0.0 1.0 0.00 0.00 0.00 80 1017.8
20260905170135 76 34 1.0 1.0 0.00 0.00 0.00 82 1017.9
20260905165629 76 26 0.0 0.0 0.00 0.00 0.00 82 1017.9
20260905165124 75 135 0.0 0.0 0.00 0.00 0.00 86 1018.2
20260905164625 75 352 1.0 1.0 0.00 0.00 0.00 84 1018.2
20260905164124 75 351 0.0 1.0 0.00 0.00 0.00 85 1018.2
20260905163620 74 45 0.0 0.0 0.00 0.00 0.00 86 1018.2
20260905163116 73 177 0.0 0.0 0.00 0.00 0.00 88 1017.9
20260905162612 73 343 1.0 2.0 0.00 0.00 0.00 88 1018.1
20260905162111 73 343 0.0 0.0 0.00 0.00 0.00 89 1018.3
20260905161611 73 342 0.0 0.0 0.00 0.00 0.00 90 1018.2
20260905161110 73 343 0.0 1.0 0.00 0.00 0.00 90 1018.3
20260905160609 72 343 1.0 2.0 0.00 0.00 0.00 91 1018.0
20260905160109 71 168 0.0 2.0 0.00 0.00 0.00 92 1017.7
20260905155604 71 56 1.0 2.0 0.00 0.00 0.00 93 1017.6
20260905155102 71 51 4.0 6.0 0.00 0.00 0.00 93 1017.8
20260905154557 71 25 2.0 3.0 0.00 0.00 0.00 95 1017.7